User: anonymous   Login
Location: Chenango Forks
(42.2242°N, 75.8278°W)
Time: 03:45:44
(UTC-04:00)
Language:

Coronas F rocket - Orbit

View from above orbital plane
View from above orbital plane
View from above satellite
View from above satellite

Ground track
Ground track

The orbit data is extracted from the following two-line orbital elements,

1 26874U 01032B   16179.50219854  .00020568  00000-0  10260-3 0  9994
2 26874  82.4602 270.5647 0007853 154.8767 205.2885 15.81646819837279
Epoch (UTC): 27 June 2016 12:03:09
Eccentricity: 0.0007853
inclination: 82.4602°
perigee height: 320 km
apogee height: 331 km
right ascension of ascending node: 270.5647°
argument of perigee: 154.8767°
revolutions per day: 15.81646819
mean anomaly at epoch: 205.2885°
orbit number at epoch: 83727

The dashed part of the orbit path shows where the satellite is in the earth's shadow,  

DLR